Location: Fournol
(45.6190°N, 1.9918°E)
Time: 21:47:52
(UTC+00:00)

Daily predictions for brighter satellites

Satellite Brightness Start Highest point End
(mag) Time Altitude Azimuth Time Altitude Azimuth Time Altitude Azimuth
USA 215 4.2 19:00:30 10° E 19:06:29 40° NNE 19:12:29 10° NW
Cosmos 1833 4.2 19:02:13 10° SSW 19:07:48 70° ESE 19:13:27 10° NNE
FALCON 9 DEB 4.4 19:08:42 10° S 19:11:25 22° SE 19:14:09 10° E
H-2A R/B 3.8 19:09:59 10° SSW 19:14:31 34° W 19:19:01 10° NNW
Cosmos 2219 Rocket 2.7 19:09:35 10° NNW 19:15:05 46° ENE 19:20:32 10° SE
SL-16 R/B 3.9 19:10:02 10° NW 19:15:08 35° WSW 19:20:12 10° S
Cosmos 44 4.3 19:10:56 10° SSE 19:15:10 27° ESE 19:19:35 10° NE
ERS-2 2.0 19:12:09 10° NNE 19:15:49 77° ESE 19:19:26 10° S
Resurs 01 Rocket 3.2 19:13:32 10° ESE 19:16:39 19° ENE 19:19:47 10° NNE
Cosmos 1455 3.1 19:15:38 10° SSE 19:18:51 28° E 19:22:06 10° NNE
Cosmos 1825 Rocket 3.6 19:15:24 10° N 19:19:48 88° E 19:24:13 10° S
SAR-Lupe-4 3.7 19:17:27 10° N 19:21:03 79° WNW 19:24:38 10° SSW
ATLAS 5 CENTAUR R/B 3.7 19:18:18 10° W 19:21:52 28° NW 19:25:52 10° NNE
Resurs 1-3 4.3 19:23:52 10° SE 19:27:54 37° ENE 19:31:56 10° N
Cosmos 1758 Rocket 4.5 19:24:09 10° NNW 19:28:30 53° W 19:32:51 10° S
Lacrosse 5 rocket 3.4 19:26:10 10° W 19:29:41 28° NNW 19:33:23 10° NE
Cosmos 2034 Rocket 4.1 19:24:21 10° S 19:30:34 89° W 19:36:53 10° N
ATLAS 5 CENTAUR R/B 0.6 19:29:39 10° NW 19:31:30 52° NE 19:33:14 14° ESE
Abrixas rocket 3.1 19:31:48 10° S 19:32:30 13° SSE 19:32:30 13° SSE
Nadezhda 4 Rocket 4.2 19:26:52 10° N 19:33:12 82° W 19:39:26 10° S
Cosmos 405 Rocket 4.2 19:31:39 10° NNE 19:34:53 23° ENE 19:37:21 13° ESE
In-Cosmos 22 Rocket 4.4 19:32:37 10° NNW 19:38:30 82° W 19:44:18 10° S
SJ-6B 2.6 19:37:47 10° SSE 19:41:30 89° ENE 19:45:17 10° NNW
Cosmos 2237 Rocket 3.4 19:36:53 10° N 19:41:37 26° NE 19:45:35 13° ESE
Meteor 2-10 Rocket 3.6 19:37:21 10° S 19:42:34 87° E 19:48:03 10° NNE
BREEZE-M DEB (TANK) 3.6 19:37:24 10° WSW 19:42:36 86° SSE 19:47:38 10° E
Exosat Rocket 4.1 19:36:08 10° NNW 19:42:42 54° ENE 19:47:11 14° SE
BREEZE-M DEB (TANK) 3.7 19:41:19 10° WSW 19:44:15 86° NNW 19:51:41 10° ENE
SL-8 R/B 3.8 19:40:08 10° WNW 19:44:59 82° NNE 19:48:58 15° ESE
MOS 1 4.3 19:39:52 10° SSE 19:45:28 71° ENE 19:51:07 10° N
Cosmos 405 2.8 19:45:19 10° S 19:48:46 88° E 19:52:15 10° N
Cosmos 2026 Rocket 4.0 19:43:34 10° N 19:49:37 66° E 19:55:41 10° SSE
OBJECT-B 1.0 19:46:43 10° S 19:49:55 70° W 19:53:10 10° NNW
IRS-1A Rocket 4.3 19:44:47 10° SSE 19:50:21 79° ENE 19:56:03 10° NNW
BREEZE-M DEB (TANK) 4.0 19:49:45 10° WSW 19:53:45 72° NNW 20:08:35 10° ENE
NOSS 3-4 (A) 4.2 19:48:28 10° WSW 19:54:13 55° NW 20:00:27 10° NNE
NOSS 3-4 (C) 4.2 19:48:34 10° WSW 19:54:19 56° NW 20:00:33 10° NNE
Cosmos 1892 3.5 19:52:27 10° NNW 19:56:09 52° W 19:59:50 10° S
Cosmos 2227 Rocket 3.6 19:57:04 16° ESE 19:57:35 17° E 20:01:00 10° ENE
Cosmos 1627 Rocket 4.4 19:53:35 10° N 19:59:45 82° E 20:05:57 10° S
Cosmos 2098 Rocket 4.5 19:53:37 10° N 20:00:42 81° W 20:08:07 10° S
Cosmos 2251 Rocket 3.6 19:55:55 10° S 20:01:10 59° ESE 20:06:26 10° NNE
Cosmos 389 Rocket 3.4 20:00:14 23° SE 20:01:24 29° E 20:04:31 10° NNE
Cosmos 2297 Rocket 3.2 20:02:12 18° SE 20:04:46 24° ESE 20:09:14 10° NE
Cosmos 2333 Rocket 2.5 19:59:46 10° NNW 20:05:29 67° WSW 20:10:56 11° SSE
Cosmos 1634 Rocket 4.0 19:59:37 10° S 20:05:54 80° E 20:12:10 10° N
BREEZE-M DEB (TANK) 2.6 20:04:52 10° WNW 20:07:13 39° N 20:08:17 23° ENE
Cosmos 2219 4.2 20:05:52 20° SE 20:07:27 23° E 20:11:46 10° NE
SPOT 3 Rocket 3.7 20:03:45 18° SE 20:07:31 56° ENE 20:12:36 10° N
ATLAS 2AS CENTAUR R/B 3.3 19:59:49 10° SW 20:07:44 74° NW 20:15:32 10° NE
Cosmos 1825 2.1 20:05:09 10° N 20:08:57 85° W 20:11:59 15° S
ARIANE 5 R/B 4.0 20:09:19 20° E 20:10:48 23° ENE 20:14:17 10° NNE
Ariane Rocket 3.2 20:07:58 10° S 20:13:00 70° WSW 20:18:03 10° NNW
Cosmos 2322 4.4 20:10:53 10° NW 20:16:22 52° WSW 20:21:42 11° S
Cosmos 1408 4.0 20:13:36 10° NNW 20:16:54 36° W 20:20:11 10° SSW
Orbus 7S? 3.5 20:16:05 10° WSW 20:18:51 67° NW 20:23:58 10° NE
CZ-4C R/B 4.3 20:16:04 10° W 20:20:35 28° NNW 20:25:54 10° NNE
RESURS DK-1 2.5 20:16:59 10° SSW 20:21:05 74° WNW 20:25:15 10° NNE
Landsat 7 3.9 20:20:37 26° SE 20:23:11 61° ENE 20:27:53 10° N
USA 245 4.0 20:24:37 32° E 20:25:23 35° ENE 20:28:34 10° N
Cosmos-2242 4.0 20:25:50 28° E 20:26:01 28° E 20:29:43 10° NNE
Meteor 2-1 Rocket 4.4 20:21:38 10° SSW 20:27:28 82° W 20:33:25 10° N
Cosmos 2058 3.6 20:25:54 10° NNW 20:30:00 54° W 20:33:18 15° SSW
Cosmos 1655 Rocket 4.2 20:28:33 10° N 20:34:45 55° ENE 20:37:46 30° SE
SL-16 R/B 3.6 20:30:54 10° N 20:35:38 26° NE 20:37:53 20° E
Cosmos 614 Rocket 3.8 20:30:42 10° SSW 20:35:51 84° ESE 20:40:59 10° NNE
Cosmos 1980 3.8 20:31:34 10° NNW 20:37:15 66° ENE 20:39:45 34° SE
BREEZE-M DEB (TANK) 4.2 20:34:02 10° W 20:38:26 70° N 20:55:24 10° E
IRIDIUM 104 4.3 20:40:01 19° S 20:43:52 89° W 20:49:08 10° N
Cosmos 2151 3.0 20:40:10 10° N 20:44:26 60° ENE 20:45:17 49° SE
COSMOS 2428 3.6 20:40:28 10° NW 20:45:54 45° WSW 20:49:50 18° S
Cosmos 2344 3.7 20:38:35 10° SW 20:46:03 75° NW 20:54:02 10° NE
Meteor 2-3 Rocket 3.9 20:40:49 10° N 20:46:30 55° ENE 20:48:26 38° SE
FALCON 9 DEB 3.6 20:44:41 10° WSW 20:48:05 59° NNW 20:49:45 27° NE
Cosmos 1076 Rocket 3.7 20:43:54 10° NNW 20:48:14 68° W 20:50:07 32° S
ATLAS 3B R/B 3.1 20:42:04 10° NW 20:49:01 63° WSW 20:53:12 27° SSE
USA 215 3.2 20:45:38 31° ESE 20:49:03 83° NE 20:55:38 10° NW
Cosmos 1812 Rocket 3.5 20:47:57 29° S 20:50:12 89° W 20:54:42 10° N
Cosmos 192 4.3 20:45:41 10° NNW 20:50:41 84° WSW 20:52:26 41° SSE
Resurs 01 Rocket 2.3 20:50:18 24° SSW 20:52:46 50° W 20:57:08 10° NNW
IRIDIUM 114 4.4 20:49:08 18° S 20:53:02 75° W 20:58:16 10° N
Cosmos 1818 4.1 20:48:31 10° SW 20:53:54 62° NW 20:59:21 10° NNE
ERS-1 Rocket 3.4 20:54:40 40° E 20:55:36 45° ENE 21:00:23 10° N
Cosmos 407 Rocket 3.3 20:53:35 30° S 20:56:07 69° ESE 21:01:17 10° NNE
Cosmos 44 4.3 20:51:07 10° SW 20:56:08 52° NW 21:01:24 10° NNE
Cosmos 2219 Rocket 3.7 20:53:56 10° NW 20:58:49 30° WSW 21:02:59 13° SSW
Okean 3 Rocket 4.3 20:55:08 10° N 20:59:21 37° ENE 20:59:21 37° ENE
NOSS 0 Rocket 4.2 20:54:00 10° NNW 21:00:09 63° WSW 21:03:07 31° S
Meteor 2-21 4.4 20:56:30 10° N 21:02:35 83° W 21:05:28 33° S
Cosmos 1766 Rocket 4.2 20:59:39 10° N 21:03:29 39° ENE 21:03:29 39° ENE
Cosmos 1633 2.6 21:00:34 10° NNW 21:04:10 73° W 21:04:10 73° W
CARTOSAT-1 3.5 21:04:22 63° E 21:04:41 66° ENE 21:08:59 10° N
IGS 5A 4.5 21:04:09 28° SSW 21:05:45 41° W 21:09:43 10° NNW
Lacrosse 5 rocket 4.0 21:07:04 10° NW 21:10:00 18° N 21:13:02 10° NE
Cosmos 405 Rocket 4.5 21:07:21 10° NNW 21:10:52 29° W 21:12:30 22° SW
Cosmos 1954 Rocket 4.5 21:12:16 41° E 21:12:16 41° E 21:16:24 10° NNE
Cosmos 1023 Rocket 4.3 21:12:04 37° SSW 21:14:08 89° ESE 21:19:16 10° NNE
COSMOS 2455 3.6 21:18:15 34° E 21:18:15 34° E 21:22:24 10° NE
Cosmos 1869 4.4 21:18:39 35° NE 21:18:39 35° NE 21:21:12 10° NNE
SPOT 5 2.6 21:19:30 68° E 21:19:36 69° ENE 21:24:18 10° N
Cosmos 1140 Rocket 3.4 21:18:31 37° SSW 21:20:34 84° WNW 21:25:45 10° NNE
Spot 2 Rocket 3.6 21:21:43 52° SSW 21:22:51 71° WSW 21:27:56 10° NNW
Cosmos 2237 Rocket 2.5 21:20:32 10° NNW 21:26:03 57° WSW 21:27:26 45° SSW
Terra 1.9 21:28:59 61° ENE 21:28:59 61° ENE 21:33:34 10° N
Cosmos 2082 4.0 21:39:13 48° ENE 21:39:13 48° ENE 21:43:41 10° NE
Cosmos 2263 Rocket 4.3 21:42:46 12° ENE 21:42:46 12° ENE 21:43:26 10° ENE
Cosmos 2227 Rocket 2.2 21:38:45 40° SW 21:40:54 78° WNW 21:46:37 10° NNE
Meteor 2-8 Rocket 4.3 21:42:18 59° S 21:43:35 90° WSW 21:49:46 10° N
Cosmos 468 Rocket 4.4 21:38:57 10° NNW 21:43:44 50° NE 21:43:44 50° NE
ARIANE 5 R/B 3.6 21:46:52 38° WSW 21:47:03 38° W 21:51:11 10° NNW
Cosmos 2297 Rocket 2.8 21:43:48 15° SW 21:48:25 55° WNW 21:53:59 10° NNE
Cosmos 2219 3.7 21:47:37 22° SW 21:51:09 57° WNW 21:56:43 10° NNE
H-2A R/B 4.4 21:50:39 10° NNE 21:53:41 46° N 21:53:41 46° N
Timation 2 Rocket 4.4 21:54:58 16° SW 22:00:15 62° WNW 22:06:32 10° NNE
BREEZE M DEB (TANK) 4.3 21:59:04 12° WSW 22:03:18 86° SSE 22:20:28 10° ENE
Cosmos 1763 Rocket 3.7 21:58:35 10° NNW 22:02:58 61° NNE 22:02:58 61° NNE
Nadezhda 2 Rocket 4.3 21:59:02 10° N 22:05:21 87° W 22:05:44 79° S
Cosmos 676 Rocket 4.2 22:07:09 64° WNW 22:07:15 64° WNW 22:12:25 10° NNE
SL-16 R/B 2.5 22:14:33 10° NNW 22:19:46 58° W 22:19:46 58° W
Meteor 2-15 Rocket 4.3 22:22:08 80° W 22:22:10 80° W 22:28:16 10° N
Cosmos 540 Rocket 4.2 22:18:01 10° NNW 22:22:04 48° NNE 22:22:04 48° NNE
NOSS 3-1 (C) 4.1 22:19:45 10° NW 22:27:13 75° NE 22:28:43 61° ESE
SL-08 ROCKET BODY 4.4 22:22:05 10° N 22:27:52 81° NNW 22:27:52 81° NNW
Cosmos 2221 4.1 22:30:07 33° N 22:30:07 33° N 22:32:37 10° N
SL-08 R/B 4.4 22:25:44 10° N 22:31:43 81° WNW 22:31:43 81° WNW
USA 215 4.3 22:32:58 31° WSW 22:32:58 31° WSW 22:38:13 10° WNW
Cosmos 44 Rocket 4.3 22:36:36 44° NNE 22:36:36 44° NNE 22:40:13 10° NNE
Aureole 1 Rocket 4.4 22:38:07 44° NNE 22:38:07 44° NNE 22:41:22 10° NNE
Cosmos 1553 Rocket 4.0 22:39:11 75° NW 22:39:11 75° NW 22:44:59 10° N
ALOS 2 4.4 22:49:56 27° NNE 22:49:56 27° NNE 22:52:13 10° N
Cosmos 1943 3.7 22:44:19 10° NNW 22:48:59 54° NNE 22:48:59 54° NNE
Lacrosse 5 rocket 3.5 22:46:36 10° NW 22:49:47 26° N 22:49:47 26° N
COSMOS 2455 3.8 23:01:18 37° W 23:02:46 43° NW 23:08:31 10° NNE
SeaSat 1 3.5 23:00:43 10° NNE 23:04:24 44° NNW 23:04:24 44° NNW
Terra 4.1 23:07:51 16° WNW 23:07:51 16° WNW 23:10:00 10° NW
Cosmos 2315 Rocket 4.4 23:10:31 58° NE 23:10:31 58° NE 23:15:48 10° NNE
Cosmos 2263 Rocket 2.9 23:24:26 49° N 23:24:26 49° N 23:28:35 10° NNE
USA 281 3.7 23:33:03 50° ENE 23:33:28 51° ENE 23:39:48 10° NNW
USA 229 DEB 4.0 23:26:56 10° NW 23:33:33 68° W 23:33:33 68° W
USA 229 3.9 23:27:01 10° NW 23:33:40 68° W 23:33:40 68° W
Cosmos 1844 Rocket 4.3 23:39:31 24° ENE 23:39:31 24° ENE 23:42:09 10° NE
Cosmos 2074 Rocket 4.5 23:37:57 10° N 23:43:22 55° NE 23:43:22 55° NE
